Diyarbakir, Turkey

3:50 AM +03 on December 05, 2016 (GMT +0300)
Diyarbakir

Weather History for LTCC - May, 2013

Change the Weather History Date:

Monday, May 27, 2013

  Actual Average Record
Temperature  
Mean Temperature 73 °F -  
Max Temperature 87 °F 82 °F 91 °F (2006)
Min Temperature 59 °F 54 °F 50 °F (1999)
Cooling Degree Days 8    
Growing Degree Days 23 (Base 50)    
Moisture  
Dew Point 41 °F    
Average Humidity 36    
Maximum Humidity 63    
Minimum Humidity 6    
Precipitation  
Precipitation 0.00 in - - ()
Sea Level Pressure  
Sea Level Pressure 29.76 in    
Wind  
Wind Speed 11 mph ()    
Max Wind Speed 16 mph    
Max Gust Speed -    
Visibility 7.0 miles    
Events      
Averages and records for this station are not official NWS values.
T = Trace of Precipitation, MM = Missing Value Source: Averaged Metar Reports

Daily Weather History Graph

Daily Weather History Graph

Search for Another Location

Airport or City:

Trip Planner

Search our weather history database for the weather conditions in past years. The results will help you decide how hot, cold, wet, or windy it might be!

Date:

Astronomy

May. 27, 2013 Rise Set
Actual Time 5:01 AM EEST 7:32 PM EEST
Civil Twilight 4:30 AM EEST 8:02 PM EEST
Nautical Twilight 3:52 AM EEST 8:40 PM EEST
Astronomical Twilight 3:11 AM EEST 9:22 PM EEST
Moon 9:54 PM EEST (5/27) 7:12 AM EEST (5/27)
Length of Visible Light 15h 32m
Length of Day
14h 31m
Waning Gibbous, 93% of the Moon is Illuminated
May 27
Waning Gibbous
May 31
Last Quarter
Jun 8
New
Jun 16
First Quarter
Jun 23
Full

Hourly Weather History & Observations

Time (EEST) Temp. Dew Point Humidity Pressure Visibility Wind Dir Wind Speed Gust Speed Precip Events Conditions
12:20 AM 68.0 °F 46.4 °F 46% 29.74 in - WNW 13.8 mph - N/A   Clear
12:50 AM 66.2 °F 46.4 °F 49% 29.74 in - WNW 13.8 mph - N/A   Clear
1:20 AM 66.2 °F 46.4 °F 49% 29.74 in - WNW 13.8 mph - N/A   Clear
1:50 AM 64.4 °F 48.2 °F 56% 29.74 in - WNW 11.5 mph - N/A   Clear
2:20 AM 66.2 °F 46.4 °F 49% 29.71 in - NW 15.0 mph - N/A   Clear
2:50 AM 60.8 °F 46.4 °F 59% 29.74 in - WNW 9.2 mph - N/A   Clear
3:00 AM 61 °F 47 °F 50% 29.62 in 12 mi WNW 9.2 mph - -  
3:20 AM 60.8 °F 46.4 °F 59% 29.74 in - WNW 9.2 mph - N/A   Clear
3:50 AM 62.6 °F 46.4 °F 55% 29.74 in - WNW 11.5 mph - N/A   Clear
4:20 AM 60.8 °F 46.4 °F 59% 29.74 in - WNW 11.5 mph - N/A   Clear
4:50 AM 60.8 °F 46.4 °F 59% 29.74 in - WNW 10.4 mph - N/A   Clear
5:20 AM 60.8 °F 46.4 °F 59% 29.74 in - WNW 11.5 mph - N/A   Clear
5:50 AM 66.2 °F 44.6 °F 46% 29.74 in - WNW 15.0 mph - N/A   Clear
6:20 AM 68.0 °F 44.6 °F 43% 29.74 in - WNW 15.0 mph - N/A   Clear
6:50 AM 69.8 °F 44.6 °F 40% 29.77 in - WNW 15.0 mph - N/A   Clear
7:20 AM 71.6 °F 44.6 °F 38% 29.77 in - NW 15.0 mph - N/A   Clear
7:50 AM 75.2 °F 44.6 °F 34% 29.77 in - WNW 12.7 mph - N/A   Clear
8:20 AM 75.2 °F 41.0 °F 29% 29.77 in - NW 13.8 mph - N/A   Clear
8:50 AM 77.0 °F 44.6 °F 32% 29.77 in - WNW 13.8 mph - N/A   Clear
9:00 AM 77 °F 42 °F 18% 29.68 in 12 mi WNW 13.8 mph - -  
9:20 AM 78.8 °F 37.4 °F 23% 29.77 in - NW 15.0 mph - N/A   Clear
9:50 AM 80.6 °F 37.4 °F 21% 29.77 in - NW 12.7 mph - N/A   Clear
10:20 AM 80.6 °F 35.6 °F 20% 29.77 in - NW 13.8 mph - N/A   Clear
10:50 AM 82.4 °F 33.8 °F 17% 29.77 in 6.2 mi NW 12.7 mph - N/A   Partly Cloudy
11:20 AM 82.4 °F 35.6 °F 19% 29.77 in 6.2 mi NW 13.8 mph - N/A   Partly Cloudy
11:50 AM 84.2 °F 35.6 °F 18% 29.77 in 6.2 mi NW 12.7 mph - N/A   Partly Cloudy
12:20 PM 84.2 °F 35.6 °F 18% 29.77 in 6.2 mi NW 12.7 mph - N/A   Partly Cloudy
12:50 PM 86.0 °F 33.8 °F 15% 29.77 in 6.2 mi WNW 12.7 mph - N/A   Partly Cloudy
1:20 PM 86.0 °F 33.8 °F 15% 29.74 in 6.2 mi WNW 13.8 mph - N/A   Partly Cloudy
1:50 PM 86.0 °F 24.8 °F 11% 29.74 in 6.2 mi WNW 13.8 mph - N/A   Partly Cloudy
2:20 PM 86.0 °F 28.4 °F 12% 29.74 in 6.2 mi WNW 11.5 mph - N/A   Partly Cloudy
2:50 PM 87.8 °F 35.6 °F 16% 29.74 in 6.2 mi NW 13.8 mph - N/A   Partly Cloudy
3:00 PM 87 °F 29 °F 6% 29.63 in 12 mi NW 13.8 mph - -   Scattered Clouds
3:20 PM 86.0 °F 28.4 °F 12% 29.74 in 6.2 mi WNW 13.8 mph - N/A   Partly Cloudy
3:50 PM 86.0 °F 28.4 °F 12% 29.74 in 6.2 mi WNW 16.1 mph - N/A   Partly Cloudy
4:20 PM 86.0 °F 30.2 °F 13% 29.74 in 6.2 mi NW 13.8 mph - N/A   Partly Cloudy
4:50 PM 86.0 °F 30.2 °F 13% 29.74 in 6.2 mi NW 11.5 mph - N/A   Partly Cloudy
5:20 PM 84.2 °F 28.4 °F 13% 29.74 in 6.2 mi NNW 12.7 mph - N/A   Partly Cloudy
5:50 PM 84.2 °F 30.2 °F 14% 29.74 in 6.2 mi NNW 10.4 mph - N/A   Partly Cloudy
6:20 PM 75.2 °F 44.6 °F 34% 29.77 in 6.2 mi East 13.8 mph - N/A   Partly Cloudy
6:50 PM 71.6 °F 46.4 °F 41% 29.80 in 6.2 mi East 12.7 mph - N/A   Partly Cloudy
7:20 PM 69.8 °F 46.4 °F 43% 29.80 in - East 10.4 mph - N/A   Clear
7:50 PM 68.0 °F 46.4 °F 46% 29.80 in - East 12.7 mph - N/A   Clear
8:20 PM 66.2 °F 46.4 °F 49% 29.80 in - East 6.9 mph - N/A   Clear
8:50 PM 64.4 °F 46.4 °F 52% 29.83 in - ESE 6.9 mph - N/A   Clear
9:00 PM 64 °F 46 °F 41% 29.73 in 6 mi ESE 6.9 mph - -   Scattered Clouds
9:20 PM 62.6 °F 46.4 °F 55% 29.83 in - SW 3.5 mph - N/A   Clear
9:50 PM 60.8 °F 48.2 °F 63% 29.83 in - West 6.9 mph - N/A   Clear
10:20 PM 60.8 °F 48.2 °F 63% 29.83 in - North 6.9 mph - N/A   Clear
10:50 PM 60.8 °F 46.4 °F 59% 29.83 in - North 5.8 mph - N/A   Clear
11:20 PM 60.8 °F 48.2 °F 63% 29.83 in - North 5.8 mph - N/A   Clear
11:50 PM 60.8 °F 46.4 °F 59% 29.83 in - North 4.6 mph - N/A   Clear